Tracking 26218 objects as of 27-Sep-2022
HD Live streaming from Space Station
objects crossing your sky now

STARLINK-4612

Track STARLINK-4612 now!
10-day predictions
STARLINK-4612 is classified as:


NORAD ID: 53750
Int'l Code: 2022-107BC
Perigee: 370.1 km
Apogee: 371.8 km
Inclination: 53.2 °
Period: 91.8 minutes
Semi major axis: 6741 km
RCS: Unknown
Launch date: September 5, 2022
Source: United States (US)
Launch site: AIR FORCE EASTERN TEST RANGE (AFETR)
aabbcc
Your satellite tracking list
Your tracking list is empty




NASA's NSSDC Master Catalog

Two Line Element Set (TLE):
1 53750U 22107BC  22270.25001157 -.01242537  00000-0 -12115-1 0  9993
2 53750  53.2164 163.5543 0001238 123.1567 160.5203 15.68280540  3592
Source of the keplerian elements: AFSPC